Home   Weather   Yaoundé   Past weeks
Flag for Cameroon

Past Weather in Yaoundé, Cameroon — Yesterday and Last 2 Weeks

Now
70 °F

Passing clouds.


Feels Like: 70 °F
Forecast: 78 / 66 °F
Wind: 3 mph from West

Location: Yaounde Airport

Current Time: Oct 19, 2019 at 1:46:11 am

Latest Report: Oct 19, 2019 at 12:00 am


Visibility: 5 mi

Pressure: 30.04 "Hg (27.64 "Hg at 717m altitude)

Humidity: 100%

Dew Point: 70 °F

Location of YaoundéLocation

Past Weather in Yaoundé — Graph

°F

Yaoundé Temperature Yesterday

Maximum temperature yesterday: 82 °F (at 3:00 pm)
Minimum temperature yesterday: 70 °F (at 6:00 am)
Average temperature yesterday: 73 °F

High & Low Weather Summary for the Past Weeks

 TemperatureHumidityPressure
High86 °F (Oct 4, 4:00 pm)100% (Oct 4, 12:00 am)30.09 "Hg (Oct 4, 12:00 am)
Low68 °F (Oct 5, 1:00 am)55% (Oct 4, 4:00 pm)29.89 "Hg (Oct 4, 4:00 pm)
Average74 °F90%30.00 "Hg
* Reported Oct 4 12:00 am — Oct 19 12:00 am, Yaoundé. Weather by CustomWeather, © 2019

Note: Actual official high and low records may vary slightly from our data, if they occured in-between our weather recording intervals... More about our weather records

Advertising

Yaoundé Weather History for the Previous 24 Hours

Scroll right to see more
 ConditionsComfort  
Time TempWeatherWind HumidityBarometerVisibility
12:00 am
Sat, Oct 19
70 °FPassing clouds.3 mph100%30.04 "Hg5 mi
11:00 pm
Fri, Oct 18
70 °FPassing clouds.1 mph100%30.04 "Hg4 mi
10:00 pm70 °FThunderstorms. Passing clouds.2 mph100%30.04 "Hg4 mi
9:00 pm72 °FThunderstorms. Passing clouds.6 mph94%30.01 "Hg4 mi
8:00 pm72 °FThunderstorms. Passing clouds.No wind100%30.01 "Hg4 mi
7:00 pm72 °FThunderstorms. Passing clouds.6 mph100%29.98 "Hg4 mi
6:00 pm73 °FThunderstorms. Passing clouds.3 mph100%29.95 "Hg4 mi
5:00 pm73 °FThunderstorms. Partly sunny.1 mph94%29.92 "Hg4 mi
4:00 pm73 °FThunderstorms. Partly sunny.13 mph89%29.92 "Hg2 mi
3:00 pm82 °FThunderstorms. Scattered clouds.5 mph70%29.92 "Hg5 mi
2:00 pm77 °FPassing clouds.6 mph83%29.95 "HgN/A
1:00 pm77 °FPartly sunny.9 mph89%29.98 "HgN/A
12:00 pm79 °FPartly sunny.3 mph79%30.04 "HgN/A
10:00 am77 °FPartly sunny.5 mph89%30.07 "HgN/A
9:00 am73 °FPartly sunny.5 mph94%30.07 "HgN/A
8:00 am72 °FPartly sunny.3 mph100%30.07 "HgN/A
7:00 am72 °FBroken clouds.5 mph100%30.04 "HgN/A
6:00 am70 °FDrizzle. Broken clouds.1 mph100%30.04 "Hg1 mi
5:00 am72 °FPartly cloudy.5 mph94%30.01 "Hg4 mi
2:00 am72 °FPassing clouds.2 mph100%30.01 "Hg5 mi
1:00 am72 °FPassing clouds.2 mph100%30.04 "Hg5 mi
Weather by CustomWeather, © 2019

See weather overview